Home   Weather   Liège   Past weeks

Flag for Belgium Past Weather in Liège, Belgium — Yesterday and Last 2 Weeks

Now
37 °F

Passing clouds.


Feels Like: 34 °F
Forecast: 33 / 56 °F
Wind: 5 mph from South

Location: Bierset

Current Time: Apr 28, 2017 at 4:56:15 am

Latest Report: Apr 28, 2017 at 4:20 am


Visibility: 5 mi

Pressure: 29.98 "Hg

Humidity: 81%

Dew Point: 32 °F

Location of LiègeLocation

Past Weather in Liège — Graph

°F

Liège Temperature Yesterday

Maximum temperature yesterday: 50 °F (at 12:50 pm)
Minimum temperature yesterday: 32 °F (at 6:50 am)
Average temperature yesterday: 42 °F

High & Low Weather Summary for the Past Weeks

 TemperatureHumidityPressure
High59 °F (Apr 21, 3:50 pm)94% (Apr 15, 10:50 am)30.63 "Hg (Apr 15, 10:50 am)
Low30 °F (Apr 20, 6:20 am)32% (Apr 20, 5:50 pm)29.74 "Hg (Apr 25, 1:20 am)
Average44 °F67%30.16 "Hg
* Reported Apr 13 3:20 am — Apr 28 3:20 am, Liège, Weather by CustomWeather, © 2017

Note: Actual official high and low records may vary slightly from our data, if they occured in-between our weather recording intervals... More about our weather records

Advertising

Liège Weather History for the Previous 24 Hours

Scroll right to see more
 ConditionsComfort  
Time TempWeatherWind HumidityBarometerVisibility
3:20 am
Fri, Apr 28
37 °FClear.3 mph81%29.98 "Hg10 mi
2:50 am37 °FClear.2 mph81%29.98 "Hg10 mi
2:20 am37 °FClear.5 mph81%29.98 "Hg10 mi
1:50 am37 °FPassing clouds.5 mph75%29.98 "HgN/A
1:20 am37 °FClear.5 mph75%29.98 "Hg10 mi
12:50 am39 °FClear.3 mph75%30.01 "Hg10 mi
12:20 am39 °FClear.3 mph75%30.01 "Hg10 mi
11:50 pm
Thu, Apr 27
41 °FClear.3 mph70%30.01 "Hg10 mi
11:20 pm39 °FClear.3 mph75%30.01 "Hg10 mi
10:50 pm41 °FClear.1 mph70%30.01 "Hg10 mi
10:20 pm41 °FClear.2 mph70%30.01 "Hg10 mi
9:50 pm41 °FClear.2 mph70%30.01 "Hg10 mi
9:20 pm43 °FPassing clouds.5 mph66%30.01 "HgN/A
8:50 pm43 °FPassing clouds.2 mph66%30.01 "HgN/A
8:20 pm45 °FPassing clouds.5 mph57%30.01 "HgN/A
7:50 pm45 °FPassing clouds.6 mph61%30.01 "HgN/A
7:20 pm46 °FPassing clouds.7 mph53%30.01 "HgN/A
6:50 pm46 °FPassing clouds.8 mph57%30.01 "HgN/A
6:20 pm45 °FPassing clouds.12 mph66%30.01 "HgN/A
5:50 pm48 °FPassing clouds.10 mph54%30.01 "HgN/A
5:20 pm50 °FScattered clouds.9 mph58%30.01 "HgN/A
4:50 pm46 °FSprinkles. Partly sunny.12 mph62%30.01 "HgN/A
4:20 pm48 °FScattered clouds.10 mph54%30.01 "HgN/A
3:50 pm50 °FScattered clouds.8 mph43%30.01 "HgN/A
3:20 pm50 °FScattered clouds.7 mph47%30.01 "HgN/A
2:50 pm48 °FScattered clouds.6 mph54%30.01 "HgN/A
2:20 pm48 °FScattered clouds.9 mph54%30.01 "HgN/A
1:50 pm46 °FScattered clouds.12 mph53%30.01 "HgN/A
1:20 pm48 °FScattered clouds.8 mph46%30.04 "HgN/A
12:50 pm50 °FScattered clouds.5 mph47%30.04 "HgN/A
12:20 pm46 °FScattered clouds.6 mph46%30.04 "HgN/A
11:50 am45 °FScattered clouds.7 mph53%30.04 "HgN/A
11:20 am46 °FScattered clouds.6 mph57%30.04 "HgN/A
10:50 am45 °FScattered clouds.6 mph57%30.04 "HgN/A
10:20 am45 °FPassing clouds.3 mph66%30.04 "HgN/A
9:50 am43 °FPassing clouds.2 mph66%30.04 "HgN/A
9:20 am41 °FPassing clouds.1 mph76%30.04 "HgN/A
8:50 am41 °FPassing clouds.3 mph76%30.04 "HgN/A
8:20 am39 °FPassing clouds.2 mph81%30.04 "HgN/A
7:50 am37 °FScattered clouds.2 mph87%30.04 "HgN/A
7:20 am34 °FScattered clouds.3 mph87%30.01 "HgN/A
6:50 am32 °FScattered clouds.3 mph93%30.01 "HgN/A
5:20 am36 °FPassing clouds.2 mph87%30.01 "HgN/A
4:50 am36 °FPassing clouds.3 mph87%29.98 "HgN/A
4:20 am36 °FPassing clouds.5 mph87%29.98 "HgN/A
Weather by CustomWeather, © 2017

See weather overviewHow to use our weather pages